This is the latest recevied weather packets stored in our database for station/object HASTNG-WX. If no packets are shown the sender has not sent any weather packets the latest 10 day(s).
| Time | Temp. | Humidity | Pressure | Rain* | Wind** | Luminosity | Snow |
|---|---|---|---|---|---|---|---|
| 1778176861 | 11.11° C | 39% | 984.1 hPa | 0 mm | - | - | - |
| 1778175931 | 11.11° C | 41% | 984.8 hPa | 0 mm | - | - | - |
| 1778175049 | 11.11° C | 39% | 985 hPa | 0 mm | - | - | - |
| 1778174135 | 10.56° C | 39% | 985 hPa | 0 mm | - | - | - |
| 1778173258 | 10.56° C | 39% | 985 hPa | 0 mm | - | - | - |
| 1778172335 | 10.56° C | 45% | 984.2 hPa | 0 mm | - | - | - |
| 1778171449 | 10° C | 45% | 984.2 hPa | 0 mm | - | - | - |
| 1778170536 | 10° C | 45% | 984.2 hPa | 0 mm | - | - | - |
| 1778169657 | 9.44° C | 45% | 984.2 hPa | 0 mm | - | - | - |
| 1778168735 | 9.44° C | 50% | 984.7 hPa | 0 mm | - | - | - |
| 1778167850 | 8.89° C | 53% | 984.6 hPa | 0 mm | - | - | - |
| 1778166935 | 8.33° C | 53% | 984.6 hPa | 0 mm | - | - | - |
| 1778166057 | 8.33° C | 53% | 984.6 hPa | 0 mm | - | - | - |
| 1778165133 | 8.33° C | 55% | 983.2 hPa | 0 mm | - | - | - |
| 1778164252 | 7.78° C | 55% | 983.6 hPa | 0 mm | - | - | - |
| 1778163335 | 7.78° C | 55% | 983.6 hPa | 0 mm | - | - | - |
| 1778162466 | 7.22° C | 55% | 983.6 hPa | 0 mm | - | - | - |
| 1778161534 | 7.22° C | 66% | 984.4 hPa | 0 mm | - | - | - |
| 1778160650 | 6.67° C | 66% | 984.4 hPa | 0 mm | - | - | - |
| 1778159730 | 6.67° C | 66% | 984.5 hPa | 0 mm | - | - | - |
| 1778158859 | 6.11° C | 66% | 984.5 hPa | 0 mm | - | - | - |
| 1778157935 | 5.56° C | 65% | 983.5 hPa | 0 mm | - | - | - |
| 1778157050 | 5.56° C | 65% | 983.5 hPa | 0 mm | - | - | - |
| 1778156129 | 5° C | 65% | 983.5 hPa | 0 mm | - | - | - |
| 1778155259 | 4.44° C | 68% | 983.2 hPa | 0 mm | - | - | - |
* Rain latest hour (hover to see other rain measurements)
** Current wind speed in m/s (hover to see current wind gust speed)